weather.gov     
National Weather Service

Regional Weather Roundup
NWS Homepage
This page is being discontinued on March 12, 2014.
The same data is available at this site. Please update your bookmarks.
Thank you, and we apologize for the inconvenience.
Please send an email to SR-SRH.Webmaster@noaa.gov with any concerns.


Current Version
Previous Version:    01  02  03  04  05  06  07  08  09  10  11  12  13  14  15  16  17  18  19  20  21  22  23  24  25  26  27  28  29  30  
   31  32  33  34  35  36  37  38  39  40  41  
[Printable]
952
ASCA42 TJSJ 301411
RWRPR
PUERTO RICO/U.S. VIRGIN ISLANDS HOURLY WEATHER ROUNDUP
NATIONAL WEATHER SERVICE SAN JUAN PR
1000 AM AST THU OCT 30 2014

PRZ001-004-301500-
PUERTO RICO

CITY           SKY/WX    TMP DP  RH WIND       PRES   REMARKS
SAN JUAN LMM   MOSUNNY   86  77  74 N3        29.86R HX  97
AGUADILLA      MOSUNNY   84  73  70 NE5       29.88R HX  91
CEIBA          CLOUDY    82  73  74 W3        29.89R
$$

PRZ006-007-301500-
U.S. VIRGIN ISLANDS

CITY           SKY/WX    TMP DP  RH WIND       PRES   REMARKS
CHRISTIANSTED  MOSUNNY   84  75  74 S8        29.87S HX  92
$$

HOURLY WEATHER ROUNDUP FOR THE NEWS MEDIA

CITY           SKY/WX    TMP DP  RH WIND       PRES   REMARKS
MIAMI          MOSUNNY   80  66  62 CALM      29.99R
ORLANDO        MOSUNNY   74  67  78 NW3       30.00R
NEW YORK       MOSUNNY   57  42  57 NW13      30.00S
NEWARK         MOSUNNY   54  41  61 NW10      30.01R
CHICAGO        PTSUNNY   39  33  79 SW3       30.14R
HARTFORD       SUNNY     54  41  61 NW6       29.94S
BOSTON         MOSUNNY   54  40  59 W13       29.93F
DALLAS         MOSUNNY   60  48  64 S5        30.16R
PHILADELPHIA   MOSUNNY   53  40  61 N13       30.03S




U.S. Dept. of Commerce
NOAA National Weather Service
1325 East West Highway
Silver Spring, MD 20910
E-mail: w-nws.webmaster@noaa.gov
Page last modified: May 16, 2007
NATIONAL WEATHER SERVICE: for Safety, for Work, for Fun - FOR LIFE